TimeEDT,TemperatureF,Dew PointF,Humidity,Sea Level PressureIn,VisibilityMPH,Wind Direction,Wind SpeedMPH,Gust SpeedMPH,PrecipitationIn,Events,Conditions,WindDirDegrees,DateUTC
12:16 AM,69.8,62.6,78,29.98,10.0,Calm,Calm,-,N/A,,Overcast,0,2013-08-09 04:16:00
12:36 AM,68.0,62.6,83,29.97,10.0,NE,4.6,-,N/A,,Mostly Cloudy,50,2013-08-09 04:36:00
12:56 AM,68.0,60.8,78,29.97,10.0,NE,4.6,-,N/A,,Mostly Cloudy,50,2013-08-09 04:56:00
1:12 AM,68.0,60.8,78,29.97,10.0,Calm,Calm,-,N/A,,Scattered Clouds,0,2013-08-09 05:12:00
1:32 AM,68.0,62.6,83,29.96,10.0,Calm,Calm,-,N/A,,Mostly Cloudy,0,2013-08-09 05:32:00
1:52 AM,68.0,62.6,83,29.96,10.0,Calm,Calm,-,N/A,,Overcast,0,2013-08-09 05:52:00
2:12 AM,68.0,60.8,78,29.96,10.0,Calm,Calm,-,N/A,,Overcast,0,2013-08-09 06:12:00
2:32 AM,66.2,60.8,83,29.95,10.0,Calm,Calm,-,N/A,,Overcast,0,2013-08-09 06:32:00
2:52 AM,66.2,62.6,88,29.95,10.0,NNW,3.5,-,N/A,,Overcast,340,2013-08-09 06:52:00
3:12 AM,66.2,60.8,83,29.95,10.0,North,4.6,-,N/A,,Overcast,350,2013-08-09 07:12:00
3:32 AM,66.2,59.0,78,29.95,10.0,Calm,Calm,-,N/A,,Overcast,0,2013-08-09 07:32:00
3:52 AM,66.2,60.8,83,29.95,10.0,NNW,3.5,-,N/A,,Overcast,330,2013-08-09 07:52:00
4:13 AM,66.2,59.0,78,29.95,10.0,NNW,3.5,-,N/A,,Overcast,330,2013-08-09 08:13:00
4:33 AM,66.2,59.0,78,29.94,10.0,Calm,Calm,-,N/A,,Overcast,0,2013-08-09 08:33:00
4:53 AM,66.2,59.0,78,29.95,10.0,Calm,Calm,-,N/A,,Overcast,0,2013-08-09 08:53:00
5:13 AM,66.2,59.0,78,29.95,10.0,Calm,Calm,-,N/A,,Overcast,0,2013-08-09 09:13:00
5:33 AM,64.4,60.8,88,29.95,10.0,NNW,3.5,-,N/A,,Mostly Cloudy,340,2013-08-09 09:33:00
5:53 AM,64.4,59.0,83,29.95,10.0,Calm,Calm,-,N/A,,Mostly Cloudy,0,2013-08-09 09:53:00
6:13 AM,64.4,59.0,83,29.96,10.0,NNW,4.6,-,N/A,,Mostly Cloudy,340,2013-08-09 10:13:00
6:33 AM,64.4,59.0,83,29.96,10.0,North,3.5,-,N/A,,Mostly Cloudy,350,2013-08-09 10:33:00
6:53 AM,64.4,57.2,77,29.96,10.0,NNW,3.5,-,N/A,,Scattered Clouds,340,2013-08-09 10:53:00
7:13 AM,62.6,57.2,82,29.96,10.0,North,4.6,-,N/A,,Clear,360,2013-08-09 11:13:00
7:34 AM,62.6,59.0,88,29.97,10.0,Calm,Calm,-,N/A,,Clear,0,2013-08-09 11:34:00
7:54 AM,64.4,60.8,88,29.96,10.0,North,3.5,-,N/A,,Clear,350,2013-08-09 11:54:00
8:14 AM,64.4,59.0,83,29.97,10.0,Calm,Calm,-,N/A,,Clear,0,2013-08-09 12:14:00
8:34 AM,66.2,59.0,78,29.97,10.0,North,5.8,-,N/A,,Clear,360,2013-08-09 12:34:00
8:54 AM,66.2,60.8,83,29.97,10.0,Calm,Calm,-,N/A,,Clear,0,2013-08-09 12:54:00
9:14 AM,66.2,60.8,83,29.98,10.0,NNW,3.5,-,N/A,,Clear,330,2013-08-09 13:14:00
9:34 AM,68.0,60.8,78,29.98,10.0,Calm,Calm,-,N/A,,Clear,0,2013-08-09 13:34:00
9:54 AM,69.8,60.8,73,29.97,10.0,Calm,Calm,-,N/A,,Clear,0,2013-08-09 13:54:00
10:14 AM,69.8,60.8,73,29.98,10.0,North,3.5,-,N/A,,Clear,360,2013-08-09 14:14:00
10:34 AM,71.6,60.8,69,29.98,10.0,North,3.5,-,N/A,,Clear,350,2013-08-09 14:34:00
10:55 AM,71.6,59.0,64,29.98,10.0,Calm,Calm,-,N/A,,Clear,0,2013-08-09 14:55:00
11:15 AM,73.4,55.4,53,29.99,10.0,Calm,Calm,-,N/A,,Clear,0,2013-08-09 15:15:00
11:35 AM,75.2,55.4,50,29.99,10.0,Calm,Calm,-,N/A,,Clear,0,2013-08-09 15:35:00
11:55 AM,75.2,55.4,50,29.99,10.0,WNW,3.5,-,N/A,,Clear,300,2013-08-09 15:55:00
12:15 PM,75.2,55.4,50,29.99,10.0,North,4.6,-,N/A,,Clear,350,2013-08-09 16:15:00
12:35 PM,77.0,57.2,50,29.98,10.0,North,4.6,-,N/A,,Clear,10,2013-08-09 16:35:00
12:55 PM,77.0,55.4,47,29.98,10.0,North,4.6,-,N/A,,Clear,350,2013-08-09 16:55:00
1:15 PM,78.8,57.2,47,29.98,10.0,Calm,Calm,-,N/A,,Clear,0,2013-08-09 17:15:00
1:36 PM,78.8,57.2,47,29.98,10.0,Calm,Calm,-,N/A,,Clear,0,2013-08-09 17:36:00
1:56 PM,78.8,59.0,51,29.97,10.0,Calm,Calm,-,N/A,,Clear,0,2013-08-09 17:56:00
2:16 PM,78.8,59.0,51,29.98,10.0,West,6.9,-,N/A,,Clear,260,2013-08-09 18:16:00
2:36 PM,80.6,59.0,48,29.98,10.0,West,9.2,-,N/A,,Clear,280,2013-08-09 18:36:00
2:56 PM,80.6,57.2,45,29.98,10.0,West,9.2,-,N/A,,Clear,280,2013-08-09 18:56:00
3:16 PM,80.6,57.2,45,29.97,10.0,WNW,8.1,-,N/A,,Clear,290,2013-08-09 19:16:00
3:36 PM,80.6,57.2,45,29.97,10.0,SW,6.9,-,N/A,,Clear,220,2013-08-09 19:36:00
3:56 PM,80.6,59.0,48,29.96,10.0,NW,4.6,-,N/A,,Clear,310,2013-08-09 19:56:00
4:16 PM,80.6,60.8,51,29.96,10.0,NW,5.8,-,N/A,,Clear,320,2013-08-09 20:16:00
4:36 PM,80.6,60.8,51,29.96,10.0,West,4.6,-,N/A,,Clear,280,2013-08-09 20:36:00
4:56 PM,82.4,60.8,48,29.96,10.0,WSW,8.1,-,N/A,,Clear,250,2013-08-09 20:56:00
5:12 PM,82.4,60.8,48,29.96,10.0,WNW,5.8,-,N/A,,Clear,300,2013-08-09 21:12:00
5:32 PM,80.6,60.8,51,29.96,10.0,WSW,9.2,-,N/A,,Clear,250,2013-08-09 21:32:00
5:52 PM,82.4,60.8,48,29.95,10.0,West,5.8,-,N/A,,Clear,260,2013-08-09 21:52:00
6:12 PM,80.6,62.6,54,29.96,10.0,WSW,4.6,-,N/A,,Clear,250,2013-08-09 22:12:00
6:32 PM,80.6,62.6,54,29.95,10.0,WSW,5.8,-,N/A,,Clear,250,2013-08-09 22:32:00
6:52 PM,80.6,64.4,58,29.95,10.0,West,4.6,-,N/A,,Clear,260,2013-08-09 22:52:00
7:12 PM,80.6,62.6,54,29.96,10.0,West,6.9,-,N/A,,Clear,280,2013-08-09 23:12:00
7:32 PM,80.6,62.6,54,29.96,10.0,West,4.6,-,N/A,,Clear,270,2013-08-09 23:32:00
7:53 PM,78.8,64.4,61,29.96,10.0,West,4.6,-,N/A,,Scattered Clouds,270,2013-08-09 23:53:00
8:13 PM,75.2,64.4,69,29.97,10.0,West,4.6,-,N/A,,Scattered Clouds,260,2013-08-10 00:13:00
8:33 PM,75.2,64.4,69,29.97,10.0,West,4.6,-,N/A,,Clear,260,2013-08-10 00:33:00
8:53 PM,75.2,64.4,69,29.97,10.0,Calm,Calm,-,N/A,,Clear,0,2013-08-10 00:53:00
9:13 PM,73.4,64.4,73,29.98,10.0,Calm,Calm,-,N/A,,Clear,0,2013-08-10 01:13:00
9:33 PM,71.6,64.4,78,29.98,10.0,West,4.6,-,N/A,,Clear,280,2013-08-10 01:33:00
9:53 PM,71.6,64.4,78,29.99,10.0,West,3.5,-,N/A,,Clear,260,2013-08-10 01:53:00
10:13 PM,71.6,64.4,78,30.00,10.0,West,3.5,-,N/A,,Clear,280,2013-08-10 02:13:00
10:33 PM,71.6,64.4,78,30.00,10.0,West,4.6,-,N/A,,Clear,280,2013-08-10 02:33:00
10:54 PM,71.6,64.4,78,30.00,10.0,West,4.6,-,N/A,,Clear,280,2013-08-10 02:54:00
11:14 PM,69.8,64.4,83,30.00,10.0,West,3.5,-,N/A,,Clear,280,2013-08-10 03:14:00
11:34 PM,69.8,64.4,83,30.00,10.0,West,3.5,-,N/A,,Clear,270,2013-08-10 03:34:00
11:54 PM,69.8,64.4,83,30.01,10.0,Calm,Calm,-,N/A,,Clear,0,2013-08-10 03:54:00